Hourly Weather Allepuz

Today, 25 November, Wednesday

Time Temperature Precipitation Wind Pressure Humidity
00:00 +2°C° 0 mm 2 mps 635 mmHg 47%
01:00 +2°C° 0 mm 2 mps 635 mmHg 53%
02:00 +1°C° 0 mm 2 mps 635 mmHg 58%
03:00 +1°C° 0 mm 2 mps 634 mmHg 63%
04:00 +1°C° 0 mm 2 mps 634 mmHg 67%
05:00 +1°C° 0 mm 2 mps 634 mmHg 71%
06:00 +1°C° 0 mm 2 mps 634 mmHg 74%
07:00 +2°C° 0 mm 2 mps 634 mmHg 73%
08:00 +3°C° 0 mm 2 mps 635 mmHg 72%
09:00 +5°C° 0 mm 2 mps 635 mmHg 71%
10:00 +5°C° 0 mm 3 mps 635 mmHg 66%
11:00 +7°C° 0 mm 3 mps 635 mmHg 61%
12:00 +8°C° 0 mm 3 mps 636 mmHg 56%
13:00 +8°C° 0 mm 3 mps 635 mmHg 57%
14:00 +8°C° 0 mm 3 mps 635 mmHg 58%
15:00 +8°C° 0 mm 3 mps 634 mmHg 59%
16:00 +5°C° 0 mm 3 mps 634 mmHg 67%
17:00 +4°C° 0 mm 2 mps 633 mmHg 76%
18:00 +2°C° 0 mm 2 mps 632 mmHg 84%
19:00 +2°C° 0 mm 2 mps 633 mmHg 85%
20:00 +2°C° 0 mm 2 mps 633 mmHg 86%
21:00 +1°C° 0 mm 2 mps 633 mmHg 87%
22:00 0°C° 0 mm 3 mps 633 mmHg 88%
23:00 0°C° 0 mm 3 mps 633 mmHg 90%

Tomorrow, 26 November, Thursday

Time Temperature Precipitation Wind Pressure Humidity
00:00 0°C° 0 mm 3 mps 633 mmHg 91%
01:00 0°C° 0 mm 4 mps 633 mmHg 92%
02:00 0°C° 0 mm 4 mps 633 mmHg 92%
03:00 0°C° 0 mm 4 mps 633 mmHg 93%
04:00 0°C° 0 mm 4 mps 633 mmHg 93%
05:00 +1°C° 0 mm 3 mps 632 mmHg 94%
06:00 +1°C° 0 mm 3 mps 632 mmHg 94%
07:00 +1°C° 0 mm 4 mps 633 mmHg 90%
08:00 +3°C° 0 mm 4 mps 633 mmHg 86%
09:00 +3°C° 0 mm 5 mps 634 mmHg 82%
10:00 +4°C° 0 mm 6 mps 633 mmHg 80%
11:00 +4°C° 0 mm 6 mps 633 mmHg 78%
12:00 +5°C° 0 mm 7 mps 633 mmHg 77%
13:00 +4°C° 0.2 mm 7 mps 633 mmHg 80%
14:00 +4°C° 0.2 mm 6 mps 632 mmHg 83%
15:00 +4°C° 0.2 mm 6 mps 632 mmHg 86%
16:00 +5°C° 0.5 mm 5 mps 632 mmHg 87%
17:00 +3°C° 0.5 mm 5 mps 632 mmHg 88%
18:00 +4°C° 0.5 mm 4 mps 632 mmHg 89%
19:00 +3°C° 0.1 mm 5 mps 632 mmHg 91%
20:00 +3°C° 0.1 mm 5 mps 632 mmHg 92%
21:00 +3°C° 0.1 mm 6 mps 632 mmHg 93%
22:00 +3°C° 0.2 mm 6 mps 632 mmHg 93%
23:00 +3°C° 0.2 mm 7 mps 632 mmHg 92%

Day after tomorrow, 27 November, Friday

Time Temperature Precipitation Wind Pressure Humidity
00:00 +2°C° 0.2 mm 8 mps 632 mmHg 92%
01:00 +2°C° 0.2 mm 8 mps 632 mmHg 92%
02:00 +3°C° 0.2 mm 7 mps 631 mmHg 91%
03:00 +2°C° 0.2 mm 7 mps 631 mmHg 91%
04:00 +2°C° 0.2 mm 7 mps 631 mmHg 91%
05:00 +2°C° 0.2 mm 6 mps 630 mmHg 91%
06:00 +2°C° 0.2 mm 6 mps 630 mmHg 91%
07:00 +2°C° 0.1 mm 6 mps 630 mmHg 90%
08:00 +2°C° 0.1 mm 7 mps 630 mmHg 89%
09:00 +3°C° 0.1 mm 7 mps 630 mmHg 87%
10:00 +2°C° 0.2 mm 8 mps 630 mmHg 87%
11:00 +2°C° 0.2 mm 8 mps 630 mmHg 87%
12:00 +2°C° 0.2 mm 9 mps 629 mmHg 87%
13:00 +2°C° 0.4 mm 9 mps 629 mmHg 88%
14:00 +2°C° 0.4 mm 9 mps 628 mmHg 89%
15:00 +1°C° 0.4 mm 9 mps 628 mmHg 90%
16:00 +1°C° 1.1 mm 9 mps 628 mmHg 91%
17:00 +1°C° 1.1 mm 8 mps 628 mmHg 91%
18:00 +1°C° 1.1 mm 8 mps 628 mmHg 92%
19:00 +1°C° 0.8 mm 8 mps 628 mmHg 92%
20:00 +1°C° 0.8 mm 8 mps 627 mmHg 92%
21:00 +1°C° 0.8 mm 8 mps 627 mmHg 92%
22:00 0°C° 0.7 mm 7 mps 627 mmHg 92%
23:00 0°C° 0.7 mm 7 mps 627 mmHg 92%

28 November, Saturday

Time Temperature Precipitation Wind Pressure Humidity
00:00 +1°C° 0.7 mm 6 mps 627 mmHg 92%
01:00 +1°C° 0.7 mm 6 mps 626 mmHg 93%
02:00 +1°C° 0.7 mm 5 mps 626 mmHg 93%
03:00 +1°C° 0.7 mm 5 mps 626 mmHg 94%
04:00 +1°C° 0.3 mm 5 mps 626 mmHg 93%
05:00 +1°C° 0.3 mm 5 mps 626 mmHg 93%
06:00 +1°C° 0.3 mm 5 mps 626 mmHg 92%
07:00 +2°C° 0.2 mm 5 mps 626 mmHg 91%
08:00 +2°C° 0.2 mm 5 mps 626 mmHg 90%
09:00 +2°C° 0.2 mm 5 mps 626 mmHg 90%
10:00 +2°C° 0.1 mm 5 mps 626 mmHg 88%
11:00 +3°C° 0.1 mm 5 mps 626 mmHg 86%
12:00 +4°C° 0.1 mm 4 mps 626 mmHg 84%
13:00 +4°C° 0.1 mm 4 mps 626 mmHg 84%
14:00 +4°C° 0.1 mm 4 mps 626 mmHg 84%
15:00 +4°C° 0.1 mm 3 mps 626 mmHg 83%
16:00 +3°C° 0 mm 3 mps 627 mmHg 86%
17:00 +4°C° 0 mm 2 mps 627 mmHg 89%
18:00 +3°C° 0 mm 2 mps 627 mmHg 92%
19:00 +3°C° 0 mm 2 mps 627 mmHg 91%
20:00 +3°C° 0 mm 1 mps 627 mmHg 90%
21:00 +3°C° 0 mm 1 mps 628 mmHg 89%
22:00 +3°C° 0 mm 1 mps 628 mmHg 88%
23:00 +3°C° 0 mm 1 mps 628 mmHg 88%

29 November, Sunday

Time Temperature Precipitation Wind Pressure Humidity
00:00 +1°C° 0 mm 2 mps 628 mmHg 87%
01:00 +1°C° 0 mm 2 mps 628 mmHg 87%
02:00 +2°C° 0 mm 1 mps 628 mmHg 87%
03:00 +2°C° 0 mm 1 mps 628 mmHg 88%
04:00 +2°C° 0 mm 1 mps 628 mmHg 87%
05:00 +1°C° 0 mm 1 mps 628 mmHg 87%
06:00 +1°C° 0 mm 1 mps 628 mmHg 86%
07:00 +3°C° 0 mm 1 mps 629 mmHg 81%
08:00 +4°C° 0 mm 0 mps 630 mmHg 75%
09:00 +5°C° 0 mm 0 mps 632 mmHg 70%
10:00 +6°C° 0 mm 0 mps 632 mmHg 66%
11:00 +8°C° 0 mm 1 mps 632 mmHg 62%
12:00 +9°C° 0 mm 1 mps 632 mmHg 58%
13:00 +9°C° 0 mm 1 mps 632 mmHg 59%
14:00 +9°C° 0 mm 1 mps 632 mmHg 59%
15:00 +9°C° 0 mm 1 mps 632 mmHg 60%
16:00 +7°C° 0 mm 1 mps 632 mmHg 68%
17:00 +6°C° 0 mm 1 mps 631 mmHg 77%
18:00 +4°C° 0 mm 1 mps 631 mmHg 85%
19:00 +4°C° 0 mm 1 mps 631 mmHg 86%
20:00 +4°C° 0 mm 1 mps 631 mmHg 86%
21:00 +3°C° 0 mm 1 mps 631 mmHg 86%
22:00 +3°C° 0 mm 1 mps 631 mmHg 86%
23:00 +3°C° 0 mm 1 mps 631 mmHg 85%

30 November, Monday

Time Temperature Precipitation Wind Pressure Humidity
00:00 +3°C° 0 mm 1 mps 631 mmHg 84%
01:00 +3°C° 0 mm 1 mps 631 mmHg 84%
02:00 +2°C° 0 mm 0 mps 631 mmHg 83%
03:00 +1°C° 0 mm 0 mps 631 mmHg 83%
04:00 +1°C° 0 mm 0 mps 631 mmHg 83%
05:00 +2°C° 0 mm 1 mps 631 mmHg 83%
06:00 +2°C° 0 mm 1 mps 631 mmHg 84%
07:00 +3°C° 0 mm 1 mps 632 mmHg 79%
08:00 +4°C° 0 mm 0 mps 632 mmHg 75%
09:00 +5°C° 0 mm 0 mps 633 mmHg 70%
10:00 +6°C° 0 mm 1 mps 633 mmHg 68%
11:00 +7°C° 0 mm 1 mps 633 mmHg 66%
12:00 +8°C° 0 mm 1 mps 633 mmHg 64%
13:00 +7°C° 0 mm 1 mps 633 mmHg 66%
14:00 +7°C° 0 mm 1 mps 633 mmHg 68%
15:00 +7°C° 0 mm 1 mps 633 mmHg 70%
16:00 +6°C° 0.2 mm 1 mps 632 mmHg 76%
17:00 +5°C° 0.2 mm 1 mps 632 mmHg 82%
18:00 +5°C° 0.2 mm 1 mps 632 mmHg 88%
19:00 +5°C° 0.1 mm 1 mps 632 mmHg 89%
20:00 +5°C° 0.1 mm 1 mps 632 mmHg 90%
21:00 +5°C° 0.1 mm 1 mps 633 mmHg 90%
22:00 +4°C° 0 mm 1 mps 633 mmHg 91%
23:00 +3°C° 0 mm 0 mps 633 mmHg 92%
Show more